HVDC transfer

From www.emi.ea.govt.nz provided by the Electricity Authority (New Zealand)
Run at: 20240514141651

Parameters
Date range,19 Feb 2019 - 19 Feb 2019
Time scale,Trading period
Show,Average flow (MW)

Period start,Period end,Trading period,Direction,Energy transfer (GWh),Peak flow (MW),Average flow (MW)
19/02/2019 00:00:00,19/02/2019 00:30:00,1,Northward at Haywards,0.062,124,124
19/02/2019 00:30:00,19/02/2019 01:00:00,2,Northward at Haywards,0.070,139,139
19/02/2019 01:00:00,19/02/2019 01:30:00,3,Northward at Haywards,0.063,126,126
19/02/2019 01:30:00,19/02/2019 02:00:00,4,Northward at Haywards,0.055,110,110
19/02/2019 02:00:00,19/02/2019 02:30:00,5,Northward at Haywards,0.044,87,87
19/02/2019 02:30:00,19/02/2019 03:00:00,6,Northward at Haywards,0.036,72,72
19/02/2019 03:00:00,19/02/2019 03:30:00,7,Northward at Haywards,0.036,72,72
19/02/2019 03:30:00,19/02/2019 04:00:00,8,Northward at Haywards,0.039,78,78
19/02/2019 04:00:00,19/02/2019 04:30:00,9,Northward at Haywards,0.040,80,80
19/02/2019 04:30:00,19/02/2019 05:00:00,10,Northward at Haywards,0.053,106,106
19/02/2019 05:00:00,19/02/2019 05:30:00,11,Northward at Haywards,0.082,164,164
19/02/2019 05:30:00,19/02/2019 06:00:00,12,Northward at Haywards,0.093,186,186
19/02/2019 06:00:00,19/02/2019 06:30:00,13,Northward at Haywards,0.124,247,247
19/02/2019 06:30:00,19/02/2019 07:00:00,14,Northward at Haywards,0.208,416,416
19/02/2019 07:00:00,19/02/2019 07:30:00,15,Northward at Haywards,0.248,495,495
19/02/2019 07:30:00,19/02/2019 08:00:00,16,Northward at Haywards,0.263,525,525
19/02/2019 08:00:00,19/02/2019 08:30:00,17,Northward at Haywards,0.264,527,527
19/02/2019 08:30:00,19/02/2019 09:00:00,18,Northward at Haywards,0.289,577,577
19/02/2019 09:00:00,19/02/2019 09:30:00,19,Northward at Haywards,0.296,592,592
19/02/2019 09:30:00,19/02/2019 10:00:00,20,Northward at Haywards,0.313,626,626
19/02/2019 10:00:00,19/02/2019 10:30:00,21,Northward at Haywards,0.314,627,627
19/02/2019 10:30:00,19/02/2019 11:00:00,22,Northward at Haywards,0.295,589,589
19/02/2019 11:00:00,19/02/2019 11:30:00,23,Northward at Haywards,0.290,580,580
19/02/2019 11:30:00,19/02/2019 12:00:00,24,Northward at Haywards,0.290,579,579
19/02/2019 12:00:00,19/02/2019 12:30:00,25,Northward at Haywards,0.293,585,585
19/02/2019 12:30:00,19/02/2019 13:00:00,26,Northward at Haywards,0.262,523,523
19/02/2019 13:00:00,19/02/2019 13:30:00,27,Northward at Haywards,0.256,511,511
19/02/2019 13:30:00,19/02/2019 14:00:00,28,Northward at Haywards,0.252,503,503
19/02/2019 14:00:00,19/02/2019 14:30:00,29,Northward at Haywards,0.230,459,459
19/02/2019 14:30:00,19/02/2019 15:00:00,30,Northward at Haywards,0.210,419,419
19/02/2019 15:00:00,19/02/2019 15:30:00,31,Northward at Haywards,0.202,404,404
19/02/2019 15:30:00,19/02/2019 16:00:00,32,Northward at Haywards,0.212,423,423
19/02/2019 16:00:00,19/02/2019 16:30:00,33,Northward at Haywards,0.191,382,382
19/02/2019 16:30:00,19/02/2019 17:00:00,34,Northward at Haywards,0.186,372,372
19/02/2019 17:00:00,19/02/2019 17:30:00,35,Northward at Haywards,0.178,355,355
19/02/2019 17:30:00,19/02/2019 18:00:00,36,Northward at Haywards,0.167,333,333
19/02/2019 18:00:00,19/02/2019 18:30:00,37,Northward at Haywards,0.135,269,269
19/02/2019 18:30:00,19/02/2019 19:00:00,38,Northward at Haywards,0.140,279,279
19/02/2019 19:00:00,19/02/2019 19:30:00,39,Northward at Haywards,0.113,226,226
19/02/2019 19:30:00,19/02/2019 20:00:00,40,Northward at Haywards,0.089,177,177
19/02/2019 20:00:00,19/02/2019 20:30:00,41,Northward at Haywards,0.124,248,248
19/02/2019 20:30:00,19/02/2019 21:00:00,42,Northward at Haywards,0.167,333,333
19/02/2019 21:00:00,19/02/2019 21:30:00,43,Northward at Haywards,0.238,475,475
19/02/2019 21:30:00,19/02/2019 22:00:00,44,Northward at Haywards,0.201,402,402
19/02/2019 22:00:00,19/02/2019 22:30:00,45,Northward at Haywards,0.184,368,368
19/02/2019 22:30:00,19/02/2019 23:00:00,46,Northward at Haywards,0.129,258,258
19/02/2019 23:00:00,19/02/2019 23:30:00,47,Northward at Haywards,0.106,212,212
19/02/2019 23:30:00,20/02/2019 00:00:00,48,Northward at Haywards,0.056,112,112
